Flag for Nepal Weather past 2 weeks in Kathmandu, Nepal

Now
77 °F

Broken clouds.


Feels Like: 79 °F
Forecast: 65 / 83 °F
Wind: No wind

Location: Kathmandu Airport

Current Time: Jul 29, 2014 at 7:32:33 PM

Latest Report: Jul 29, 2014 at 6:35 PM


Visibility: 4 mi

Pressure: 29.77 "Hg

Humidity: 74%

Dew point: 68 °F

Location of KathmanduLocation

Historic Weather in Kathmandu — Graph

°F

Kathmandu temperature yesterday

Maximum temperature yesterday: 84 °F (at 11:35 AM)
Minimum temperature yesterday: 70 °F (at 4:35 AM)
Average temperature yesterday: 76 °F

Past Weeks' High & Low Weather Summary

 TemperatureHumidityPressure
High84 °F (Jul 19, 1:35 PM)100% (Jul 14, 7:35 PM)29.98 "Hg (Jul 14, 7:35 PM)
Low68 °F (Jul 17, 4:35 AM)48% (Jul 27, 1:35 PM)29.62 "Hg (Jul 19, 4:35 PM)
Average75 °F79%29.81 "Hg
* Reported Jul 14 6:35 PM — Jul 29 6:35 PM, Kathmandu, Weather by CustomWeather, © 2014

Note: Actual official high and low records may vary slightly from our data, if they occured in-between our weather recording intervals... More about our weather records

Advertising

Kathmandu weather history for previous 24 hours

 ConditionsComfort  
Time TempWeatherWind HumidityBarometerVisibility
6:35 PM
Jul 29
77 °FBroken clouds.No wind74%29.77 "Hg4 mi
5:35 PM75 °FBroken clouds.3 mph74%29.77 "Hg4 mi
4:35 PM77 °FWarm.10 mph69%29.77 "Hg2 mi
3:35 PM81 °FThunderstorms. Scattered clouds.9 mph51%29.77 "Hg5 mi
2:35 PM82 °FPassing clouds.13 mph58%29.77 "HgN/A
1:35 PM84 °FPassing clouds.5 mph58%29.80 "HgN/A
12:35 PM82 °FScattered clouds.3 mph55%29.80 "HgN/A
11:35 AM82 °FScattered clouds.1 mph51%29.86 "HgN/A
10:35 AM81 °FPassing clouds.3 mph58%29.86 "HgN/A
9:35 AM79 °FScattered clouds.3 mph58%29.86 "HgN/A
8:35 AM75 °FScattered clouds.3 mph74%29.86 "Hg5 mi
7:35 AM72 °FScattered clouds.No wind83%29.86 "Hg6 mi
6:35 AM72 °FBroken clouds.No wind83%29.86 "Hg5 mi
5:35 AM70 °FPartly cloudy.No wind88%29.86 "Hg4 mi
4:35 AM70 °FLight rain. Partly cloudy.No wind88%29.83 "Hg5 mi
3:35 AM72 °FPartly cloudy.3 mph83%29.83 "Hg5 mi
2:35 AM72 °FRain showers. Mostly cloudy.5 mph83%29.83 "Hg2 mi
1:35 AM72 °FPartly cloudy.No wind78%29.83 "Hg5 mi
12:35 AM72 °FThunderstorms. Partly cloudy.5 mph88%29.86 "Hg5 mi
11:35 PM
Jul 28
72 °FPartly cloudy.3 mph88%29.86 "Hg5 mi
10:35 PM73 °FPartly cloudy.6 mph83%29.89 "Hg5 mi
8:35 PM73 °FPartly cloudy.5 mph83%29.83 "Hg5 mi
7:35 PM73 °FBroken clouds.6 mph83%29.83 "HgN/A
Weather by CustomWeather, © 2014

See weather overviewHow to use our weather pages